This demonstration page uses our WeatherBlox Daily Observations layout. Learn more.

Left ArrowRight Arrow

Hourly Observations for September 15, 2019

Temp ( °F °C ) Dew Point ( °F °C ) Humidity (%) Winds ( mph kmh ) Pressure ( in mb ) Visibility ( mi km ) Precip ( " mm )
12:51 am 00:51 Cloudy 68 20 62 16.7 81 81 ESE 10 17 30.00 1016 10 16 0.00 0.00
1:51 am 01:51 Cloudy with Light Rain 64 17.8 63 17.2 96 96 SE 7 11 30.01 1016 4 6 0.02 0.51
2:51 am 02:51 Cloudy 64 17.8 64 17.8 100 100 S 9 15 29.98 1015 10 16 0.04 1.02
3:51 am 03:51 Cloudy 65 18.3 63 17.2 93 93 SSW 5 7 29.97 1015 10 16 0.00 0.00
4:51 am 04:51 Cloudy 65 18.3 64 17.8 97 97 Calm 29.97 1015 10 16 0.00 0.00
5:51 am 05:51 Cloudy 66 18.9 64 17.8 93 93 Calm 29.97 1015 10 16 0.00 0.00
6:51 am 06:51 Cloudy with Light Rain 66 18.9 64 17.8 93 93 NW 3 6 29.98 1015 6 10 0.00 0.00
7:29 am 07:29 Cloudy 66 18.9 65 18.3 96 96 NNW 3 6 29.98 1015 10 16 0.00 0.00
7:51 am 07:51 Cloudy 66 18.9 64 17.8 93 93 NW 3 6 29.99 1016 10 16 0.00 0.00
8:16 am 08:16 Cloudy 67 19.4 64 17.8 91 91 WNW 5 7 29.98 1015 10 16 0.00 0.00
8:37 am 08:37 Cloudy 66 19 64 18 94 94 WNW 6 9 29.99 1016 10 16 0.00 0.00
8:51 am 08:51 Cloudy 67 19.4 64 17.8 91 91 WNW 5 7 30.00 1016 10 16 0.00 0.00
9:10 am 09:10 Cloudy 68 20 64 17.8 87 87 WNW 7 11 29.98 1015 10 16 0.00 0.00
9:51 am 09:51 Cloudy 68 20 63 17.2 84 84 Calm 30.01 1016 10 16 0.00 0.00
10:51 am 10:51 Mostly Cloudy 72 22.2 65 18.3 79 79 N 3 6 29.99 1016 10 16 0.00 0.00
11:15 am 11:15 Mostly Cloudy 72 22.2 65 18.3 79 79 Calm 29.94 1014 10 16 0.00 0.00
11:25 am 11:25 Mostly Cloudy 72 22.2 65 18.3 79 79 VRB 3 6 29.93 1014 10 16 0.00 0.00
11:51 am 11:51 Cloudy 72 22.2 65 18.3 79 79 W 3 6 29.97 1015 10 16 0.00 0.00
12:08 pm 12:08 Mostly Cloudy 75 24 64 18 69 69 NW 5 7 29.91 1013 10 16 0.00 0.00
12:23 pm 12:23 Mostly Cloudy 75 23.9 65 18.3 71 71 Calm 29.89 1012 10 16 0.00 0.00
12:31 pm 12:31 Mostly Cloudy 75 24 64 18 69 69 VRB 5 7 29.89 1012 10 16 0.00 0.00
12:51 pm 12:51 Partly Cloudy 76 24.4 65 18.3 69 69 NW 5 7 29.93 1014 10 16 0.00 0.00
1:15 pm 13:15 Mostly Cloudy 77 25 65 18.3 66 66 VRB 3 6 29.86 1011 10 16 0.00 0.00
1:36 pm 13:36 Partly Cloudy 78 25.6 65 18.3 64 64 VRB 3 6 29.84 1010 10 16 0.00 0.00
1:51 pm 13:51 Mostly Sunny 80 26.7 64 17.8 58 58 WNW 7 11 29.89 1012 10 16 0.00 0.00
2:51 pm 14:51 Mostly Sunny 80 26.7 65 18.3 60 60 NNW 8 13 29.86 1011 10 16 0.00 0.00
3:51 pm 15:51 Mostly Cloudy 78 25.6 64 17.8 62 62 WSW 5 7 29.85 1011 10 16 0.00 0.00
4:51 pm 16:51 Cloudy 77 25 64 17.8 64 64 WNW 6 9 29.85 1011 10 16 0.00 0.00
5:51 pm 17:51 Mostly Cloudy 78 25.6 63 17.2 60 60 SSW 5 7 29.86 1011 10 16 0.00 0.00
6:51 pm 18:51 Clear 76 24.4 64 17.8 67 67 Calm 29.86 1011 10 16 0.00 0.00
7:51 pm 19:51 Clear 73 22.8 67 19.4 81 81 SE 5 7 29.89 1012 10 16 0.00 0.00
8:51 pm 20:51 Clear 71 21.7 67 19.4 87 87 E 6 9 29.92 1013 10 16 0.00 0.00
9:51 pm 21:51 Clear 72 22.2 67 19.4 84 84 ESE 6 9 29.93 1014 10 16 0.00 0.00
10:51 pm 22:51 Clear 71 21.7 66 18.9 84 84 ESE 8 13 29.94 1014 10 16 0.00 0.00
11:51 pm 23:51 Clear 70 21.1 65 18.3 84 84 SSE 8 13 29.95 1014 10 16 0.00 0.00

Powered by AerisWeather